This is the latest recevied weather packets stored in our database for station/object KC5DAQ-27. If no packets are shown the sender has not sent any weather packets the latest 1 day(s).
| Time | Temp. | Humidity | Pressure | Rain* | Wind** | Luminosity | Snow |
|---|---|---|---|---|---|---|---|
| 1778039690 | 25° C | 90% | 1000.4 hPa | 0 mm | 3.58 m/s, 197° | 0 W/m² | - |
| 1778039628 | 25° C | 90% | 1000.4 hPa | 0 mm | 3.58 m/s, 188° | 0 W/m² | - |
| 1778039568 | 25.56° C | 90% | 1000.5 hPa | 0 mm | 3.13 m/s, 192° | 0 W/m² | - |
| 1778039509 | 25.56° C | 90% | 1000.4 hPa | 0 mm | 3.58 m/s, 178° | 0 W/m² | - |
| 1778039448 | 25.56° C | 90% | 1000.4 hPa | 0 mm | 3.13 m/s, 159° | 0 W/m² | - |
| 1778039388 | 25.56° C | 90% | 1000.3 hPa | 0 mm | 2.24 m/s, 196° | 0 W/m² | - |
| 1778039328 | 25.56° C | 90% | 1000.3 hPa | 0 mm | 2.24 m/s, 180° | 0 W/m² | - |
| 1778039269 | 25.56° C | 90% | 1000.2 hPa | 0 mm | 2.68 m/s, 166° | 0 W/m² | - |
| 1778039209 | 25.56° C | 90% | 1000.2 hPa | 0 mm | 3.13 m/s, 190° | 0 W/m² | - |
| 1778039148 | 25.56° C | 90% | 1000.2 hPa | 0 mm | 3.58 m/s, 203° | 0 W/m² | - |
| 1778039089 | 25.56° C | 90% | 1000.3 hPa | 0 mm | 3.13 m/s, 209° | 0 W/m² | - |
| 1778039028 | 25.56° C | 90% | 1000.2 hPa | 0 mm | 2.24 m/s, 178° | 0 W/m² | - |
| 1778038968 | 25.56° C | 90% | 1000.2 hPa | 0 mm | 2.68 m/s, 186° | 0 W/m² | - |
| 1778038907 | 25.56° C | 90% | 1000.2 hPa | 0 mm | 3.13 m/s, 182° | 0 W/m² | - |
| 1778038849 | 25.56° C | 89% | 1000.2 hPa | 0 mm | 3.58 m/s, 180° | 0 W/m² | - |
| 1778038787 | 25.56° C | 89% | 1000.1 hPa | 0 mm | 4.02 m/s, 180° | 0 W/m² | - |
| 1778038728 | 25.56° C | 89% | 1000.1 hPa | 0 mm | 4.02 m/s, 186° | 0 W/m² | - |
| 1778038668 | 25.56° C | 89% | 1000.2 hPa | 0 mm | 3.58 m/s, 175° | 0 W/m² | - |
| 1778038608 | 25.56° C | 89% | 1000.1 hPa | 0 mm | 3.13 m/s, 193° | 0 W/m² | - |
| 1778038547 | 25.56° C | 89% | 1000.1 hPa | 0 mm | 2.68 m/s, 200° | 0 W/m² | - |
| 1778038488 | 25.56° C | 89% | 1000.1 hPa | 0 mm | 2.68 m/s, 193° | 0 W/m² | - |
| 1778038429 | 25.56° C | 89% | 1000 hPa | 0 mm | 3.58 m/s, 188° | 0 W/m² | - |
| 1778038367 | 25.56° C | 89% | 1000 hPa | 0 mm | 3.58 m/s, 186° | 0 W/m² | - |
| 1778038307 | 25.56° C | 89% | 1000 hPa | 0 mm | 3.13 m/s, 193° | 0 W/m² | - |
| 1778038249 | 25.56° C | 89% | 1000 hPa | 0 mm | 3.58 m/s, 207° | 0 W/m² | - |
* Rain latest hour (hover to see other rain measurements)
** Current wind speed in m/s (hover to see current wind gust speed)